THOR ABLESTAR DEB, 461

Orbit data source: Space-Track

THOR ABLESTAR DEB, 461 is space debris in LEO originally from a launch on Thu, 29 Jun 1961 UTC launched from the Air Force Eastern Test Range (AFETR). Debris objects in space refer to the collection of defunct objects orbiting the Earth. Examples of debris include non-operational satellites, rocket bodies, and fragments generated from explosions, collisions, or faulty payload assembly.

Loading next visibility...
Identifier
461, 1961-015EX
Orbit
LEO
Country
Flag of USUS
Related business
Manufacturer
Unknown
Mission
Spacecraft
Bus & Motor
Unknown
Mass
Unknown
Launch date (UTC)
1961-06-29 (64 years ago)
Launch vehicle
Unknown
Launch site
Air Force Eastern Test Range (AFETR)
Object type
Payload
Rocket body
Debris
Shape & HBR
Unknown
Radar Cross Section
Medium (>0.1 m² and <1 m²)

Expand to show TLE details & history
Last TLE update: 15 hours ago

TLE from 15 hours ago
0 THOR ABLESTAR DEB
1 00461U 61015EX  25259.99095565  .00013553  00000-0  12408-2 0  9999
2 00461  67.4974 144.5055 0031320 230.5444 129.2923 14.94759824344782
Epoch: 2025-09-16T23:46Z
TLE epoch observation values (Epoch: 2025-09-16T23:46:58.568Z)
Latitude
0.00008°
Longitude
151.58818°
Altitude
599.201 km
Speed
7.553 km/s
True Right ascension
09h 38m 01s
True Declination
0° 00' 00"
Sunlit
Object was in daylight at epoch
Visualization orbit readout
Latitude
Unknown
Longitude
Unknown
Altitude
Unknown
Speed
Unknown
Apparent Right ascension
Unknown
Apparent Declination
Unknown
Sunlit
N/A
Visualization observer readout
Local Sidereal Time
07:40:55
Azimuth
Unknown
Elevation
Unknown
Doppler factor
Unknown
Orbital elements
Apogee altitude
603.147 km
Perigee altitude
559.553 km
Semi-major axis
6,959.487 km
Eccentricity
0.00313
Inclination
67.4974°
RAAN
144.5055°
Arg. of periapsis
230.5444°
True anomaly
129.56937°
Mean anomaly
129.2923°
Eccentric anomaly
129.43091°
Mean motion
3.73833 °/min
Orbital period
96.3 mins
BSTAR
0.0012408
Loading maneuver chart data...
Computing Atmospheric mass density...

Documentation

Showing up to 5 results
|